Probability
0 0 0 0 0 0 0 0 0 0 0 0 0 0 0 0 0 0 1 2 3 3 3 3 4 4 4 5 5 5 8 14 18 19 19 17 13 12 12 9 5 3 4 4
0 0 0 0 0 0 0 0 0 0 0 0 0 0 0 0 0 0 0 1 2 2 2 3 4 5 4 4 3 3 5 9 14 16 17 16 14 12 11 9 6 4 4 5
0 0 0 0 0 0 0 0 0 0 0 0 0 0 0 0 0 0 0 1 2 2 2 3 4 5 4 3 2 2 2 4 8 12 13 12 10 10 10 10 7 5 4 5
0 0 0 0 0 0 0 0 0 0 0 0 0 0 0 0 0 0 0 2 3 3 3 3 3 4 3 2 2 3 2 2 5 9 10 8 7 7 8 9 8 4 2 3
0 0 0 0 0 0 0 0 0 0 0 0 0 0 0 0 0 0 0 1 2 3 3 3 3 3 2 2 3 4 3 1 2 5 8 8 6 5 6 7 6 4 2 1
0 0 0 0 0 0 0 0 0 0 0 0 0 0 0 0 0 0 0 0 2 3 3 2 2 3 2 2 4 6 4 2 1 3 6 8 7 5 4 5 5 5 3 1
0 0 0 0 0 0 0 0 0 0 0 0 0 0 0 0 0 0 0 0 2 3 3 3 3 3 3 2 3 5 5 2 1 3 4 6 7 6 5 6 6 5 3 2
0 0 0 0 0 0 0 0 0 0 0 0 0 0 0 0 0 0 0 0 1 2 2 3 3 3 2 1 1 3 3 1 1 2 3 4 6 7 7 6 5 4 3 3
0 0 0 0 0 0 0 0 0 0 0 0 0 0 0 0 0 0 0 0 0 1 1 1 2 1 1 0 1 1 1 0 1 2 3 3 4 6 7 6 5 4 3 3
0 0 0 0 0 0 0 0 0 0 0 0 0 0 0 0 0 0 0 0 0 0 0 1 1 1 0 1 1 1 0 0 1 3 3 3 3 4 5 5 5 5 4 4
0 0 0 0 0 0 0 0 0 0 0 0 0 0 0 0 0 0 0 0 0 0 0 0 0 0 0 1 1 1 1 1 2 3 3 3 3 3 4 4 4 4 4 3
0 0 0 0 0 0 0 0 0 0 0 0 0 0 0 0 0 0 0 0 0 0 0 0 0 0 0 0 1 2 2 2 3 3 3 3 3 3 3 3 3 3 2 2
0 0 0 0 0 0 0 0 0 0 0 0 0 0 0 0 0 0 0 0 0 0 0 0 0 0 0 0 1 2 2 2 2 2 3 3 3 3 3 3 2 1 1 0
0 0 0 0 0 0 0 0 0 0 0 0 0 0 0 0 0 0 0 0 0 0 0 0 0 0 0 0 0 1 1 0 1 1 1 2 3 3 3 3 1 0 0 0
0 0 0 0 0 0 0 0 0 0 0 0 0 0 0 0 0 0 0 0 0 0 0 0 0 0 0 0 0 0 0 0 0 0 0 1 2 2 2 2 1 1 1 1
0 0 0 0 0 0 0 0 0 0 0 0 0 0 0 0 0 0 0 0 0 0 0 0 0 0 0 0 0 0 0 0 0 0 0 0 1 1 1 1 1 2 2 2
0 0 0 0 0 0 0 0 0 0 0 0 0 0 0 0 0 0 0 0 0 0 0 0 0 0 0 0 0 0 0 0 0 0 0 0 0 0 0 0 1 1 1 2
0 0 0 0 0 0 0 0 0 0 0 0 0 0 0 0 0 0 0 0 0 0 0 0 0 0 0 0 0 0 0 0 0 0 0 0 0 0 0 0 0 0 0 1
0 0 0 0 0 0 0 0 0 0 0 0 0 0 0 0 0 0 0 0 0 0 0 0 0 0 0 0 0 0 0 0 0 0 0 0 0 0 0 0 0 0 0 0
0 0 0 0 0 0 0 0 0 0 0 0 0 0 0 0 0 0 0 0 0 0 0 0 0 0 0 0 0 0 0 0 0 0 0 0 0 0 0 0 0 0 0 0
0 0 0 0 0 0 0 0 0 0 0 0 0 0 0 0 0 0 0 0 0 0 0 0 0 0 0 0 0 0 0 0 0 0 0 0 0 0 0 0 0 0 0 0
0 0 0 0 0 0 0 0 0 0 0 0 0 0 0 0 0 0 0 0 0 0 0 0 0 0 0 0 0 0 0 0 0 0 0 0 0 0 0 0 0 0 0 0
0 0 0 0 0 0 0 0 0 0 0 0 0 0 0 0 0 0 0 0 0 0 0 0 0 0 0 0 0 0 0 0 0 0 0 0 0 0 0 0 0 0 0 0
0 0 0 0 0 0 0 0 0 0 0 0 0 0 0 0 0 0 0 0 0 0 0 0 0 0 0 0 0 0 0 0 0 0 0 0 0 0 0 0 0 0 0 0
0 0 0 0 0 0 0 0 0 0 0 0 0 0 0 0 0 0 0 0 0 0 0 0 0 0 0 0 0 0 0 0 0 0 0 0 0 0 0 0 0 0 0 0
0 0 0 0 0 0 0 0 0 0 0 0 0 0 0 0 0 0 0 0 0 0 0 0 0 0 0 0 0 0 0 0 0 0 0 0 0 0 0 0 0 0 0 0
Wind_Speed
2 3 5 5 6 5 5 7 9 8 6 8 13 16 15 12 12 13 12 11 10 10 10 8 7 7 7 7 7 7 6 7 7 6 7 7 7 6 6 6 8 9 8 9
4 5 5 4 5 6 7 8 9 7 5 8 11 17 15 12 12 11 11 11 11 10 9 8 7 7 7 8 7 7 7 7 8 7 7 6 6 6 6 5 7 8 9 9
5 2 3 5 5 6 8 9 8 8 8 7 10 12 9 7 8 8 9 9 9 9 9 8 8 8 8 8 7 7 7 7 8 7 6 5 5 4 5 6 6 8 9 9
4 3 4 5 6 6 7 5 7 8 7 5 4 8 7 6 7 7 7 7 7 7 7 8 8 8 8 7 6 7 7 7 7 7 8 9 8 7 7 6 6 7 8 9
3 3 4 6 5 6 4 3 6 7 7 7 6 8 8 4 7 6 6 6 6 6 7 7 8 8 7 6 5 5 6 7 7 7 8 9 8 7 5 6 7 7 7 8
4 3 4 3 2 4 3 3 3 4 4 7 7 8 8 4 5 5 5 5 6 6 6 7 7 6 6 5 4 5 6 7 7 8 8 9 9 8 8 8 7 6 5 6
3 4 3 3 2 3 3 2 2 3 5 6 3 7 9 3 3 5 5 6 6 6 6 6 6 5 5 4 4 4 6 7 7 7 8 8 9 10 10 9 8 7 6 5
3 4 4 4 4 4 5 4 4 5 5 4 4 8 5 2 3 5 5 5 5 6 5 5 5 5 5 4 4 4 5 6 6 7 7 7 8 7 6 8 7 7 6 6
4 3 1 3 3 4 5 5 3 3 4 7 7 6 6 3 4 4 4 4 5 5 6 5 5 5 4 4 4 4 5 6 6 6 6 6 7 7 7 7 7 6 6 5
3 4 3 2 3 3 3 3 3 5 5 7 7 7 4 3 4 4 4 5 6 6 6 6 5 6 5 4 3 3 5 5 4 4 5 5 6 6 6 6 7 7 7 7
3 4 2 3 6 5 5 4 5 4 4 5 6 4 2 3 4 4 4 5 6 7 7 6 5 5 5 4 3 3 3 3 3 3 4 4 5 6 6 6 7 7 7 8
2 3 4 4 2 2 4 5 5 4 4 5 6 6 2 3 3 4 4 5 6 7 7 6 6 5 5 5 5 4 3 3 2 2 3 3 4 5 5 5 6 6 6 7
2 3 3 3 3 3 3 4 4 3 3 5 7 6 2 2 4 5 5 6 7 8 7 6 6 5 5 5 4 5 4 4 3 2 2 3 3 4 5 5 5 5 6 6
2 3 6 6 3 2 5 6 6 6 6 7 10 10 7 6 6 7 6 6 7 7 7 7 6 6 6 5 5 5 5 4 3 2 2 2 3 3 4 5 5 5 6 6
2 4 4 8 8 7 8 9 9 11 10 9 9 10 10 8 8 7 7 6 6 7 7 7 7 6 6 6 6 5 5 4 3 2 2 2 3 3 4 4 5 5 5 6
1 3 2 5 5 5 8 10 9 10 11 12 12 13 8 7 6 6 6 6 6 6 7 7 7 7 7 7 6 6 5 5 4 3 3 3 2 3 4 4 4 5 5 5
2 2 2 4 3 5 7 6 7 6 7 7 9 7 5 6 6 6 7 6 6 6 7 7 7 6 7 7 7 6 5 5 4 3 3 3 2 3 2 3 4 4 4 4
3 3 2 3 3 6 1 2 3 5 5 6 6 5 5 6 7 7 7 6 6 6 7 7 7 7 7 6 6 5 4 4 4 4 4 3 3 2 2 2 3 3 3 4
4 4 3 3 4 7 2 0 1 3 5 3 5 6 6 6 5 4 4 5 6 7 7 7 7 7 7 6 6 4 4 4 4 4 4 4 3 3 2 2 2 2 2 3
2 2 3 3 5 5 1 1 2 3 4 1 3 5 5 5 4 3 5 7 8 8 7 6 6 6 6 6 5 4 4 4 4 4 4 4 4 4 3 3 2 2 2 2
3 3 5 5 6 6 2 1 1 2 3 4 4 4 4 4 5 6 7 8 7 7 7 6 6 5 5 5 4 3 4 4 4 4 4 4 4 4 3 2 2 2 1 1
4 4 5 4 5 5 2 0 2 3 4 4 4 4 4 5 6 6 7 6 6 6 7 6 5 5 5 5 3 4 4 4 4 3 3 4 4 3 2 2 1 1 1 1
5 4 2 5 4 2 1 3 3 4 5 5 4 5 5 6 6 6 6 6 6 6 6 6 5 5 5 5 4 4 5 4 3 3 3 3 3 2 2 1 1 1 1 1
3 1 3 5 6 5 5 5 4 5 6 6 6 6 5 6 6 6 6 6 6 6 6 6 5 5 5 5 5 5 5 4 3 3 3 2 2 2 1 1 1 1 1 2
3 3 4 6 6 6 3 3 5 5 6 6 6 6 6 6 6 6 6 6 6 6 5 5 5 5 6 6 6 5 4 4 3 3 2 2 2 2 1 1 1 2 2 2
4 5 5 5 3 4 5 4 5 5 5 6 6 6 5 5 5 6 5 5 5 5 5 5 5 5 6 6 5 5 4 3 3 2 2 2 1 1 1 1 1 1 2 2
Wind_Direction
190 199 210 212 222 245 248 250 259 268 285 273 261 267 270 262 254 256 259 260 260 259 260 256 254 250 244 240 234 231 231 229 212 202 194 195 200 201 203 204 203 205 200 197
190 216 226 219 218 231 241 251 262 273 278 277 275 274 270 258 250 253 259 262 261 263 262 259 255 250 244 241 235 231 231 232 218 210 203 200 200 204 205 203 206 208 206 201
219 205 196 207 216 232 242 246 260 276 298 268 280 272 248 244 243 249 255 257 258 260 264 265 259 253 247 242 239 233 230 233 224 212 203 195 193 195 200 202 207 211 211 204
236 229 208 212 224 231 250 242 258 269 278 275 282 283 268 255 253 254 258 256 258 261 264 265 261 257 251 247 245 241 233 230 222 211 202 198 201 204 206 201 204 208 212 208
232 217 225 231 239 231 247 270 260 260 261 271 236 256 270 256 256 260 263 269 276 278 277 275 268 261 259 254 245 239 234 228 219 212 205 205 209 209 204 200 202 206 208 208
254 237 242 246 248 226 231 261 258 233 240 252 226 235 266 238 254 273 276 280 288 293 288 280 277 271 263 260 251 241 233 229 217 210 206 209 210 207 203 203 201 202 202 206
244 216 207 216 215 194 213 240 253 233 226 244 192 240 258 267 275 288 293 302 310 313 305 300 296 287 276 266 256 243 234 234 221 212 211 212 212 209 207 206 204 201 199 203
242 229 195 207 230 222 215 230 251 265 265 279 226 243 264 312 297 303 303 303 314 314 313 310 305 297 288 275 264 256 244 237 224 218 216 215 214 211 209 211 210 209 204 204
244 250 177 227 241 221 200 215 260 274 278 272 247 256 274 267 281 307 323 330 333 331 333 329 322 315 303 289 272 260 258 248 224 219 217 216 213 210 208 210 213 213 208 201
256 261 251 217 208 211 245 201 204 226 256 267 267 259 267 277 289 312 323 333 336 336 336 335 335 331 323 310 296 281 265 249 231 221 217 218 216 213 211 210 211 214 209 203
250 246 240 210 213 210 190 199 221 232 253 268 280 277 1 306 307 300 312 333 338 339 339 338 340 341 343 334 322 297 280 271 244 232 225 219 215 211 212 212 212 208 207 205
227 249 248 238 246 279 236 226 213 238 241 244 274 282 31 322 323 327 329 336 338 336 335 336 341 347 348 346 341 335 327 312 275 248 240 232 224 213 213 214 211 207 205 205
195 220 253 213 178 181 227 229 231 250 257 244 251 266 69 346 335 340 334 336 335 335 337 339 346 352 348 347 345 341 338 335 320 282 251 241 232 219 213 212 209 209 206 203
232 232 241 259 296 251 247 240 229 224 241 250 248 271 292 311 317 324 326 328 332 334 338 341 347 351 350 347 348 345 337 334 327 311 274 251 240 226 215 211 208 207 206 203
218 245 248 270 279 272 264 259 238 227 237 251 266 276 288 305 308 312 317 320 328 334 338 340 344 344 346 346 346 344 336 335 328 316 304 276 255 238 222 214 209 207 208 206
275 246 260 271 268 270 271 264 247 241 243 251 270 279 297 310 310 310 313 314 319 324 328 334 339 340 340 340 338 336 334 334 330 328 320 313 297 262 233 219 214 208 207 203
210 205 245 265 314 291 262 242 220 227 236 240 253 277 318 313 313 311 312 310 307 313 321 327 330 331 329 330 331 329 326 329 338 337 326 312 299 282 263 242 225 214 208 201
200 204 243 280 295 247 327 67 220 237 255 243 262 294 311 308 310 302 297 300 305 312 315 320 322 323 322 322 324 323 323 330 338 332 326 317 308 289 273 256 243 231 217 206
213 202 221 241 260 271 271 205 256 250 273 253 261 285 307 320 306 297 313 316 313 313 312 312 315 314 315 319 320 322 325 333 333 326 319 314 307 296 277 261 253 248 230 221
162 194 223 231 254 260 345 32 310 258 267 7 290 294 307 314 304 319 335 323 318 317 315 314 316 317 317 318 316 317 320 319 315 311 310 310 304 292 275 266 267 261 240 232
179 194 219 233 249 270 340 329 254 250 318 345 310 298 289 281 291 304 308 309 312 315 316 316 317 318 314 314 315 315 313 304 303 304 304 301 296 284 270 265 264 252 239 222
205 198 204 209 231 260 41 121 236 307 330 317 309 304 295 292 298 298 302 306 313 316 321 324 324 324 325 325 322 314 309 305 300 297 295 293 294 287 274 257 255 245 212 200
222 226 226 218 244 341 260 267 295 313 302 307 305 305 296 297 302 305 307 310 314 318 322 326 323 324 327 328 321 309 308 309 297 290 289 285 289 285 273 252 240 228 210 207
225 225 237 258 264 280 281 277 287 292 289 295 296 295 290 291 297 303 304 307 312 317 321 322 323 323 323 324 319 310 307 302 290 283 288 289 288 284 275 252 231 223 216 213
247 194 226 254 280 298 270 277 303 304 298 297 299 295 287 286 293 298 300 304 308 312 316 318 319 320 322 323 321 316 305 295 290 294 296 293 286 275 270 267 254 235 231 230
207 208 219 253 273 274 295 319 314 305 304 304 304 308 306 296 295 299 300 303 306 310 314 317 318 319 322 324 324 327 319 301 294 298 301 296 291 284 282 285 286 266 248 257